Regional Weather Roundup
Issued by NWS Wakefield, VA

Home | Current Version | Previous Version | Text Only | Print | Product List | Glossary Off
Versions: 1 2 3 4 5 6 7 8 9 10 11 12 13 14 15 16 17 18 19 20 21 22 23 24 25 26 27

000
ASUS41 KAKQ 241215
RWRAKQ

REGIONAL WEATHER ROUNDUP
NATIONAL WEATHER SERVICE WAKEFIELD VA
800 AM EDT SAT JUN 24 2017

Note: "fair" indicates few or no clouds below 12,000 feet with no
significant weather and/or obstructions to visibility. * = Denotes
station may not report precipitation (e.g., rain,snow,etc.),
thunder or fog.

VAZ042-051-052>054-056-241300-
NORTHERN VIRGINIA

CITY           SKY/WX    TMP DP  RH WIND       PRES   REMARKS
WASH NATIONAL  MOSUNNY   76  68  76 W13G23    29.75R
DULLES         MOSUNNY   74  65  73 W9        29.77R
FORT BELVOIR   SUNNY     75  66  73 W12       29.76R
QUANTICO       LGT RAIN  78  70  76 W7        29.78R
FREDERICKSBRG* SUNNY     77  69  76 W7        29.78R
STAFFORD*      SUNNY     76  67  72 W7        29.83R
WARRENTON      SUNNY     78  63  58 W5        29.79R
CULPEPER*      SUNNY     78  66  68 SW3       29.80R
MANASSAS*      SUNNY     76  67  73 W5        29.79R
LEESBURG*      SUNNY    N/A N/A N/A W13       29.78R
WINCHESTER     MOSUNNY   72  63  73 W12G20    29.79R
FRONT ROYAL*   SUNNY     73  63  68 W9        29.80R
LURAY*         MOSUNNY   73  63  68 SW5       29.82R
$$

VAZ048-049-060>072-079>083-241300-
CENTRAL AND SOUTH CENTRAL VIRGINIA

CITY           SKY/WX    TMP DP  RH WIND       PRES   REMARKS
RICHMOND       MOSUNNY   81  68  64 W17G23    29.82R
CHESTERFIELD*  FAIR      80  69  69 W12       29.83R
PETERSBURG*    SUNNY     79  64  59 W13       29.85R
HANOVER        SUNNY     79  66  64 W14G20    29.83R
TAPPAHANNOCK*  SUNNY     77  70  79 W5        29.81R
QUINTON*       FAIR      81  70  69 W12G17    29.80R
CHARLOTTSVILLE SUNNY     76  65  68 VRB7      29.82R
GORDONSVILLE*  SUNNY     77  65  66 W5        29.81R
ORANGE*        SUNNY     75  63  64 W10       29.81R
LOUISA*        SUNNY     81  70  69 SW6       29.82R
BUMPASS*       FAIR      75  71  88 SW6       29.81R
FARMVILLE*     SUNNY     77  61  56 SW6       29.86R
CREWE*         FAIR      77  59  54 W8        29.86R
FORT PICKETT*  FAIR      77  61  56 W9G20     29.87R
CHASE CITY*    FAIR      76  65  70 W6        29.89R
CLARKSVILLE*   FAIR      77  64  65 W5        29.90R
SOUTH HILL*    SUNNY     77  67  69 W8G17     29.93R
LAWRENCEVILLE* FAIR      78  66  66 W7        29.87R
EMPORIA*       MOSUNNY   79  68  69 SW9G21    29.87R
$$

VAZ088>098-241300-
SOUTHEAST VIRGINIA

CITY           SKY/WX    TMP DP  RH WIND       PRES   REMARKS
NORFOLK        CLOUDY    82  72  71 SW18G28   29.80R
VIRGINIA BEACH CLOUDY    80  70  71 SW18      29.80R
NORFOLK NAVAL  PTSUNNY   82  71  69 SW17G29   29.82R
WEST POINT*    PTSUNNY   79  71  77 W7        29.81R
SALUDA*        CLOUDY    73  73 100 W5        29.78R
NEWPORT NEWS   CLOUDY    81  72  74 W15G25    29.80R
LANGLEY AFB    PTSUNNY   81  73  76 SW23G32   29.79R
FORT EUSTIS    CLOUDY    81  73  75 W13G18    29.78R
WILLIAMSBURG*  PTSUNNY   82  72  69 W17       29.81R
HR EXEC AP*    CLOUDY    79  72  78 W12G22    29.80R
FRANKLIN*      CLOUDY    81  72  74 W15       29.84R
US460-WAKEFLD  PTSUNNY   81  71  71 W10G20    29.83R
$$

VAZ020-022-025-037-045-241300-
WEST CENTRAL AND SOUTHWEST VIRGINIA

CITY           SKY/WX    TMP DP  RH WIND       PRES   REMARKS
STAUNTON*      MOSUNNY   69  64  83 SW8       29.89R
WAYNESBORO*    SUNNY     69  63  82 SW6       29.89R
HOT SPRINGS VA CLOUDY    59  57  94 W16G23    29.99R
LYNCHBURG      SUNNY     73  64  73 S8        29.90R
DANVILLE       MOSUNNY   73  66  78 W7        29.92R
SOUTH BOSTON*  FAIR      76  64  66 SW8       29.90R
MARTINSVILLE   MOSUNNY   72  64  77 CALM      29.97R
ROANOKE        MOSUNNY   71  62  73 W9        29.94R
BLACKSBURG     MOSUNNY   67  61  82 CALM      30.01R
DUBLIN*        MOSUNNY   69  58  67 W8        30.00R
MARION*        CLOUDY    66  63  89 W8        30.04R
HILLSVILLE*    PTSUNNY   64  58  81 CALM      30.00R
RICHLANDS*     FOG       62  62 100 CALM      30.03R VSB 1/2
WISE*          CLOUDY    64  64 100 CALM      30.05R
ABINGDON*      CLOUDY    67  67 100 CALM      30.02R
$$

MDZ021>025-VAZ099-100-241300-
SOUTHERN MARYLAND AND THE DELMARVA PENINSULA

CITY           SKY/WX    TMP DP  RH WIND       PRES   REMARKS
PATUXENT RIVER MOSUNNY   75  68  78 NW14G25   29.75R
BAY BRIDGE APT MOSUNNY   75  70  83 NW8       29.73R
LEONARDTOWN    SUNNY     73  66  78 W8        29.78R
DOVER          CLOUDY    73  73 100 W14G21    29.67R
GEORGETOWN     CLOUDY    75  70  84 NW8       29.71R
EASTON         MOSUNNY   77  68  73 NW13G18   29.77R
CAMBRIDGE      PTSUNNY   75  70  83 NW12G18   29.74R
SALISBURY      CLOUDY    74  72  93 W7        29.72R
OCEAN CITY     LGT RAIN  74  71  91 NW12G29   29.72R FOG
WALLOPS ISLAND CLOUDY    74  70  87 NW12G29   29.73R
ACCOMACK*      HVY RAIN  80  71  75 NW17G32   29.77R
$$

NCZ012>017-030>032-241300-
NORTH CENTRAL AND EASTERN NORTH CAROLINA

CITY           SKY/WX    TMP DP  RH WIND       PRES   REMARKS
ROANOKE RAPIDS FAIR      79  72  78 W16G25    29.88R
RALEIGH        PTSUNNY   78  73  84 W9        29.92R
ELIZABETH CITY MOSUNNY   81  75  82 SW20G28   29.85R
AHOSKIE*         N/A     79  74  84 CALM      29.86R
EDENTON*       PTSUNNY   82  74  77 SW14G22   29.87R
CURRITUCK*     MOSUNNY   80  73  77 SW23G30   29.83R
KILL DEVIL HLS MOSUNNY   81  73  75 SW15G29   29.84R
MANTEO         PTSUNNY   81  74  78 W21G33    29.86S
CAPE HATTERAS  MOSUNNY   80  75  84 SW18G28   29.92R
TARBORO*       NOT AVBL
GOLDSBORO      NOT AVBL
WASHINGTON     MOSUNNY  N/A N/A N/A SW16      29.89R
GREENVILLE     MOSUNNY   81  73  78 SW14G23   29.92R
NEW BERN       MOSUNNY   82  75  79 SW14G21   29.93R
WILMINGTON     PTSUNNY   82  76  81 SW15G23   29.95S
$$

VAZ048-241300-
ELSEWHERE

CITY           SKY/WX    TMP DP  RH WIND       PRES   REMARKS
HARRISBURG PA  MOSUNNY   74  69  85 NW12      29.69R
BALTIMORE      MOSUNNY   75  69  81 W12       29.72R
ANNAPOLIS      SUNNY     75  72  90 W6        29.73R
ANDREWS AFB    SUNNY     75  66  75 W13G18    29.75R
PHILADELPHIA   PTSUNNY   73  69  87 W7        29.65R
HENDERSON NC   SUNNY     75  66  75 W10G17    29.91R
GREENSBORO     CLOUDY    74  72  93 W7        29.94R
ROCKY MOUNT    CLOUDY    79  75  87 SW12G22   29.90R
$$

VAZ100-241300-
MARINE

STATION/POSITION TIME  TEMP    WIND        PRES    WAVE   SWELL
                       AIR SEA DIR/SP/G            HT/PER HT/PER
                 (UTC) (F)     (DEG/KT/KT) (MB)    (FT/S) (FT/S)
BRANDYWINE LGT   1148          330/ 19/ 25   N/A
CAPE MAY NJ      1148   73 68  320/ 24/ 31 1003.5R
LEWES DE         1148      66  300/ 19/ 22 1004.8R
15NM E FENWICK I 1150   71 65  200/ 27/ 33 1003.6F   7/ 7   2/ 9
OCEAN-CITY-INLET 1148   69 64  220/ 17/ 20 1005.1R
WACHAPREAGUE VA  1148   81 79  210/ 11/ 20 1006.5R
THOMAS POINT MD  1200   74 78  290/ 16/ 18   N/A
GOOSES REEF MD   1150   76     320/ 14/ 17 1007.7R
COVE POINT MD    1148   74     320/ 12/ 18 1007.8R
SOLOMONS ISLAND  1148   76 77  280/ 10/ 16   N/A
BISHOPS HEAD MD  1148   76 79  310/ 20/ 25 1007.4R
PINEY POINT MD   1148          330/ 21/ 23   N/A
POTOMAC MD       1150   77     320/ 17/ 21 1006.7R
CAMBRIDGE MD     1148   76 81              1007.5R
LEWISETTA VA     1148   76 78  310/ 10/ 12 1007.8R
RAPPAHANNOCK LGT 1148          300/ 23/ 32 1009.2R
STINGRAY PT      1150   74     330/ 12/ 16 1008.5R
YORK RVR RNG VA  1148   81     260/ 25/ 31 1008.2R
YORKTOWN VA      1148   81 76  250/ 16/ 23 1008.1R
JAMESTOWN VA     1150   81     260/ 16/ 21   N/A
DOMINION TERM VA 1148   80     250/ 22/ 30 1009.0R
KIPTOPEKE VA     1148      76  250/ 19/ 25   N/A
CHES BAY BRIDGE  1148   79 73  260/ 22/ 26 1008.5R
CAPE HENRY VA    1148   80     230/ 13/ 22   N/A
WILLOUBY STN VA  1148   80     240/ 24/ 26 1008.1R
S CRANEY ISL VA  1148   80     240/ 14/ 21 1009.1R
CAPE HENRY BUOY  1130      70                N/A     5/ 6
1ST LANDING BUOY 1150   79                 1008.6R
CAPE CHARLES BUO 1151      65                N/A     4/ 5
64NM E OF VA BCH 1150   75 70  220/ 23/ 25 1009.5R   8/ 7
DUCK PIER NC     1148   81 62  230/ 25/ 31 1010.2R
44100 DUCK FRF   1105      69                N/A     5/ 5
OREGON INLET NC  1148          210/ 23/ 28   N/A
HATTERAS NC      1148   79 78  230/ 16/ 23 1013.0R
DIAMOND SHLS NC  1150   80 80  230/ 27/ 33 1012.7R   8/ 7
CAPE LOOKOUT NC  1100   80     220/ 17/ 23 1013.3R
$$




USA.gov is the U.S. government's official web portal to all federal, state and local government web resources and services.